Tracking 19149 objects as of 21-Apr-2018
HD Live streaming from Space Station
objects crossing your sky now

FENGYUN 1C DEB

Track FENGYUN 1C DEB now!
10-day predictions


NORAD ID: 32136
Int'l Code: 1999-025CSE
Perigee: 742.3 km
Apogee: 848.0 km
Inclination: 98.5 °
Period: 100.6 minutes
Semi major axis: 7166 km
RCS: 0.0081 m2 (small)
Launch date: May 10, 1999
Source: People's Republic of China (PRC)
Launch site: Taiyaun Space Center, China (TSC)

Note: This is SATELLITE DEBRIS
aabbcc
Your satellite tracking list
Your tracking list is empty




NASA's NSSDC Master Catalog

Two Line Element Set (TLE):
1 32136U 99025CSE 18109.37247832 +.00000254 +00000-0 +10939-3 0  9991
2 32136 098.5122 168.9982 0073758 199.1384 160.7025 14.31116928250725
Source of the keplerian elements: AFSPC